Weather History for Dover AFB, DE

Change the Weather History Date:

Tuesday, December 24, 2013

  Actual Average Record
Temperature  
Mean Temperature 34 °F -  
Max Temperature 41 °F 46 °F 67 °F (1982)
Min Temperature 25 °F 28 °F 6 °F (1989)
Degree Days  
Heating Degree Days 32    
Moisture  
Dew Point 23 °F    
Average Humidity 61    
Maximum Humidity 77    
Minimum Humidity 45    
Precipitation  
Precipitation 0.00 in - - ()
Sea Level Pressure  
Sea Level Pressure 30.23 in    
Wind  
Wind Speed 15 mph (NW)    
Max Wind Speed 24 mph    
Max Gust Speed 33 mph    
Visibility 10 miles    
Events Rain    
Averages and records for this station are not official NWS values.
T = Trace of Precipitation, MM = Missing Value Source: NWS Daily Summary

Daily Weather History Graph

Daily Weather History Graph

Search for Another Location

Airport:

Trip Planner

Search our weather history database for the weather conditions in past years. The results will help you decide how hot, cold, wet, or windy it might be!

Date:

Astronomy

Dec. 24, 2013 Rise Set
Actual Time 7:19 AM EST 4:44 PM EST
Civil Twilight 6:48 AM EST 5:14 PM EST
Nautical Twilight 6:15 AM EST 5:48 PM EST
Astronomical Twilight 5:42 AM EST 6:20 PM EST
Moon 11:47 PM EST (12/24) 11:14 AM EST (12/24)
Length of Visible Light 10h 25m
Length of Day
9h 25m
Waning Gibbous, 59% of the Moon is Illuminated
Dec 24
Waning Gibbous
Dec 25
Last Quarter
Jan 1
New
Jan 7
First Quarter
Jan 15
Full

Hourly Weather History & Observations

Time (EST) Temp. Windchill Dew Point Humidity Pressure Visibility Wind Dir Wind Speed Gust Speed Precip Events Conditions
12:58 AM 39.9 °F 30.8 °F 31.3 °F 71% 30.16 in 10.0 mi NW 18.4 mph 23.0 mph N/A   Overcast
1:58 AM 39.4 °F 31.1 °F 30.2 °F 70% 30.16 in 10.0 mi NNW 15.0 mph - N/A   Overcast
2:58 AM 38.8 °F 30.8 °F 29.5 °F 69% 30.17 in 10.0 mi NW 13.8 mph - N/A   Overcast
3:58 AM 37.9 °F 30.0 °F 29.3 °F 71% 30.16 in 10.0 mi NW 12.7 mph - N/A   Overcast
4:58 AM 36.9 °F 29.1 °F 28.6 °F 72% 30.17 in 10.0 mi NNW 11.5 mph - N/A   Scattered Clouds
5:58 AM 35.6 °F 28.0 °F 28.9 °F 77% 30.16 in 10.0 mi NW 10.4 mph - N/A   Scattered Clouds
6:58 AM 34.7 °F 26.9 °F 28.2 °F 77% 30.18 in 10.0 mi NNW 10.4 mph - N/A   Partly Cloudy
7:58 AM 33.3 °F 25.1 °F 25.5 °F 73% 30.18 in 10.0 mi North 10.4 mph - N/A   Clear
8:58 AM 33.6 °F 25.6 °F 24.3 °F 69% 30.20 in 10.0 mi NNW 10.4 mph - N/A   Clear
9:58 AM 37.4 °F 29.3 °F 25.3 °F 62% 30.22 in 10.0 mi NNW 12.7 mph - N/A   Clear
10:58 AM 39.2 °F 31.6 °F 25.2 °F 57% 30.20 in 10.0 mi NW 12.7 mph - N/A   Clear
11:58 AM 39.9 °F 32.1 °F 25.9 °F 57% 30.16 in 10.0 mi NNW 13.8 mph 20.7 mph N/A   Clear
12:58 PM 41.4 °F 33.6 °F 25.5 °F 53% 30.16 in 10.0 mi WNW 15.0 mph 24.2 mph N/A   Mostly Cloudy
1:58 PM 39.4 °F 30.7 °F 23.9 °F 54% 30.17 in 10.0 mi WNW 16.1 mph 25.3 mph N/A   Mostly Cloudy
2:58 PM 39.9 °F 32.5 °F 24.8 °F 55% 30.18 in 10.0 mi WNW 12.7 mph 21.9 mph N/A   Partly Cloudy
3:58 PM 38.8 °F 30.4 °F 23.7 °F 55% 30.20 in 10.0 mi West 15.0 mph - N/A   Scattered Clouds
4:58 PM 37.0 °F 28.9 °F 23.2 °F 57% 30.23 in 10.0 mi WNW 12.7 mph - N/A   Mostly Cloudy
5:39 PM 37.4 °F 26.4 °F 24.8 °F 60% 30.24 in 10.0 mi West 23.0 mph 31.1 mph N/A Rain Light Rain
5:51 PM 35.6 °F 24.8 °F 24.8 °F 65% 30.25 in 10.0 mi WNW 19.6 mph 28.8 mph N/A   Scattered Clouds
5:58 PM 36.0 °F 24.4 °F 24.1 °F 62% 30.27 in 10.0 mi WNW 23.0 mph 33.4 mph 0.00 in   Scattered Clouds
6:58 PM 34.5 °F 24.8 °F 24.8 °F 68% 30.31 in 10.0 mi WNW 15.0 mph 23.0 mph N/A   Overcast
7:58 PM 31.5 °F 18.8 °F 12.6 °F 46% 30.34 in 10.0 mi WNW 21.9 mph 27.6 mph N/A   Clear
8:58 PM 29.3 °F 15.3 °F 10.0 °F 45% 30.36 in 10.0 mi WNW 24.2 mph 31.1 mph N/A   Clear
9:58 PM 27.7 °F 16.6 °F 9.1 °F 46% 30.39 in 10.0 mi NW 13.8 mph 28.8 mph N/A   Clear
10:58 PM 26.8 °F 14.5 °F 10.0 °F 49% 30.41 in 10.0 mi WNW 16.1 mph - N/A   Clear
11:58 PM 25.9 °F 13.3 °F 11.1 °F 54% 30.42 in 10.0 mi NW 16.1 mph - N/A   Clear